Regional Weather Roundup
Issued by NWS

Home | Current Version | Previous Version | Graphics & Text | Print | Product List | Glossary On
Versions: 1 2 3 4 5 6 7 8 9 10 11 12 13 14 15 16 17 18 19 20 21 22 23 24 25 26 27 28 29 30 31 32 33 34 35 36 37 38 39 40 41 42 43 44 45 46 47 48 49 50
458
ASUS45 KCYS 141510
RWRWY

WYOMING REGIONAL WEATHER ROUNDUP
NATIONAL WEATHER SERVICE CHEYENNE WY
800 AM MST SUN FEB 14 2016

NOTE:  "FAIR" INDICATES FEW OR NO CLOUDS BELOW 12,000 FEET
WITH NO SIGNIFICANT WEATHER AND/OR OBSTRUCTIONS TO VISIBILITY.

WYZ001-141600-
YELLOWSTONE NATIONAL PARK

CITY           SKY/WX    TMP DP  RH WIND       PRES   REMARKS
LK YELLOWSTONE   N/A     23  19  85 CALM      29.99R
W YELLOWSTONE  NOT AVBL

$$
WYZ002>013-054>058-071-098>099-141600-
NORTHERN WYOMING

CITY           SKY/WX    TMP DP  RH WIND       PRES   REMARKS
JACKSON        CLOUDY    32  28  86 SW23      30.01F WCI  19
CODY           FAIR      39  21  48 W7        29.86R WCI  34
GREYBULL       CLOUDY    28  22  78 S5        29.87R WCI  23
WORLAND        FAIR      26  22  84 S6        29.89R WCI  19
SHERIDAN       CLOUDY    34  21  60 CALM      29.83S
BUFFALO        CLOUDY    34  20  56 W8        29.83R WCI  27
GILLETTE       CLOUDY    29  24  82 SW6       29.82F WCI  23
HULETT         CLOUDY    32  27  80 SW10      29.83S WCI  24
NEWCASTLE      FAIR      27  23  86 CALM      29.85S

$$
WYZ014>020-022>026-101>103-141600-
CENTRAL WYOMING

CITY           SKY/WX    TMP DP  RH WIND       PRES   REMARKS
BIG PINEY      FAIR      21  18  88 VRB3      30.08R
PINEDALE         N/A     25  23  93 MISG      30.08S
DUBOIS         CLOUDY    32  21  64 W23G33    29.92F WCI  19
LANDER         FAIR      24  14  65 W6        29.92R WCI  17
RIVERTON       FAIR      28  16  60 SW13      29.92R WCI  17
CASPER         FAIR      32  18  56 SW17G29   29.86F WCI  21
DOUGLAS        FAIR      30  21  69 NE6       29.85F WCI  24

$$
WYZ021-027>030-104>119-141600-
SOUTHERN WYOMING

CITY           SKY/WX    TMP DP  RH WIND       PRES   REMARKS
EVANSTON       CLOUDY    28  24  85 SW16      30.16F WCI  16
FORT BRIDGER   SUNNY     32  28  86 W29G37    30.13F WCI  18
ROCK SPRINGS   FAIR      32  22  66 W26G36    30.04F WCI  18
DIXON          CLOUDY    30  20  65 W12G17    30.12R WCI  21
RAWLINS        FAIR      30  18  60 W35G45    29.97R WCI  14
SARATOGA       FAIR      32  19  59 W29G39    30.01R WCI  18
LARAMIE        FAIR      34  15  46 W26G40    29.92S WCI  21
CHEYENNE       FAIR      41  15  35 W8G23     29.89S
TORRINGTON     PTSUNNY   36  22  56 NW8       29.85F WCI  30
PINE BLUFFS    FAIR      30  23  74 SE3       29.90S

$$




USA.gov is the U.S. government's official web portal to all federal, state and local government web resources and services.